FW1703 Weather Reports


time (UTC)temp
C
wind
direction
speed
KPH
gust
KPH
rain 1hr
cm
rain 24hr
cm
rain mn
cm
humidity
%
barometer
mb
20260504081504 9 208 1.6 6.4 0.00 0.00 0.00 58 1014.1
20260504044540 11 200 1.6 8.0 0.00 0.00 0.00 53 1014.0
20260504043044 11 243 3.2 11.3 0.00 0.00 0.00 52 1014.0
20260504041539 11 184 0.0 9.7 0.00 0.00 0.00 52 1014.0
20260504040047 11 232 3.2 9.7 0.00 0.00 0.00 51 1013.7
20260504034539 11 204 4.8 11.3 0.00 0.00 0.00 50 1013.7
20260504033041 11 207 1.6 9.7 0.00 0.00 0.00 51 1013.4
20260504031536 11 253 0.0 6.4 0.00 0.00 0.00 50 1013.4
20260504030041 11 192 0.0 4.8 0.00 0.00 0.00 50 1013.4
20260504024537 11 237 0.0 4.8 0.00 0.00 0.00 48 1013.4
20260504023036 11 202 0.0 6.4 0.00 0.00 0.00 48 1013.4
20260504021536 11 245 0.0 4.8 0.00 0.00 0.00 49 1013.5
20260504020041 11 234 1.6 4.8 0.00 0.00 0.00 48 1013.5
20260504014537 11 215 0.0 3.2 0.00 0.00 0.00 49 1013.4
20260504013036 12 201 0.0 4.8 0.00 0.00 0.00 49 1013.3
20260504011533 12 220 1.6 3.2 0.00 0.00 0.00 48 1013.3
20260504010031 12 234 0.0 3.2 0.00 0.00 0.00 47 1013.1
20260504004530 12 250 1.6 4.8 0.00 0.00 0.00 45 1013.0
20260504003031 13 233 0.0 4.8 0.00 0.00 0.00 44 1012.8
20260504001532 13 201 0.0 8.0 0.00 0.00 0.00 43 1012.6
20260504000028 13 223 0.0 6.4 0.00 0.00 0.00 44 1012.4
20260503234529 14 252 1.6 9.7 0.00 0.00 0.00 42 1012.3
20260503233026 15 281 1.6 12.9 0.00 0.00 0.00 41 1012.3
20260503231527 15 256 1.6 9.7 0.00 0.00 0.00 42 1012.2
20260503230031 15 335 1.6 16.1 0.00 0.00 0.00 41 1012.0
20260503224526 16 284 1.6 16.1 0.00 0.00 0.00 39 1012.2
20260503223026 16 314 3.2 16.1 0.00 0.00 0.00 38 1012.0
20260503221525 16 103 1.6 19.3 0.00 0.00 0.00 40 1012.0
20260503220024 16 306 3.2 19.3 0.00 0.00 0.00 37 1012.2
20260503214537 17 244 4.8 19.3 0.00 0.00 0.00 37 1012.1
20260503213026 16 236 6.4 24.1 0.00 0.00 0.00 37 1012.0
20260503211522 16 218 1.6 11.3 0.00 0.00 0.00 38 1011.8
20260503210024 15 38 1.6 12.9 0.00 0.00 0.00 39 1012.0
20260503204523 16 292 4.8 14.5 0.00 0.00 0.00 37 1012.1
20260503203020 16 304 6.4 24.1 0.00 0.00 0.00 38 1012.2
20260503201518 17 248 4.8 22.5 0.00 0.00 0.00 37 1012.2
20260503200017 17 310 6.4 17.7 0.00 0.00 0.00 38 1012.4
20260503194520 15 280 3.2 19.3 0.00 0.00 0.00 39 1012.5
20260503193018 16 326 4.8 12.9 0.00 0.00 0.00 40 1012.7
20260503191518 16 253 8.0 32.2 0.00 0.00 0.00 38 1013.0
20260503190014 16 5 4.8 14.5 0.00 0.00 0.00 37 1013.1
20260503184513 16 314 8.0 19.3 0.00 0.00 0.00 40 1013.3
20260503183009 15 252 6.4 19.3 0.00 0.00 0.00 40 1013.5
20260503181509 15 336 4.8 24.1 0.00 0.00 0.00 39 1013.6
20260503180018 15 335 4.8 20.9 0.00 0.00 0.00 42 1013.6
20260503174516 14 10 6.4 20.9 0.00 0.00 0.00 44 1013.7
20260503173007 15 298 11.3 22.5 0.00 0.00 0.00 41 1013.8
20260503171508 14 312 6.4 19.3 0.00 0.00 0.00 42 1013.9